Location: Strohbehn Observatory
(42.4649°N, 93.8239°W)
Time: 15:40:13
(UTC-05:00)

Daily predictions for brighter satellites

Satellite Brightness Start Highest point End
(mag) Time Altitude Azimuth Time Altitude Azimuth Time Altitude Azimuth
Cosmos 2219 Rocket 3.8 20:45:46 10° SE 20:48:33 14° E 20:51:20 10° ENE
Envisat 3.4 20:44:46 10° SE 20:49:34 46° ENE 20:54:26 10° N
Meteor 1-29 3.9 20:47:37 10° NE 20:50:38 27° E 20:53:37 10° SSE
Resurs 1-3 3.8 20:46:53 10° S 20:51:16 78° WSW 20:55:40 10° NNW
SAR-Lupe-4 4.0 20:48:53 10° SE 20:52:17 44° ENE 20:55:44 10° N
USA 186 1.5 20:50:10 10° SSE 20:53:03 80° ENE 20:56:07 10° N
Cosmos 1933 3.3 20:57:52 10° S 21:01:54 87° E 21:05:56 10° N
Cosmos 1867 3.7 20:59:48 10° NW 21:05:17 84° WSW 21:10:43 10° SSE
Milstar 3 4.5 20:59:19 10° WSW 21:06:10 24° SSW 21:11:30 10° SSE
ERS-1 Rocket 3.9 21:01:58 11° SE 21:06:14 32° ENE 21:10:38 10° N
Cosmos 2263 Rocket 2.9 21:02:28 10° NNW 21:07:53 54° WSW 21:13:17 10° S
H-2A R/B 4.0 21:07:57 10° ENE 21:09:27 11° ENE 21:10:57 10° NE
SAR-Lupe-1 4.1 21:05:59 10° SSE 21:09:31 62° ENE 21:13:04 10° N
Cosmos 2266 Rocket 4.3 21:03:44 10° N 21:09:52 50° ENE 21:16:02 10° SSE
Spot 1 4.5 21:05:59 10° SSE 21:11:07 83° ENE 21:16:07 10° NNW
Cosmos 1862 4.1 21:07:19 10° NNW 21:11:17 54° W 21:15:14 10° S
CZ-4B DEB 4.5 21:09:21 10° SSE 21:12:53 88° E 21:16:28 10° NNW
NOSS 3-1 (C) 4.0 21:12:46 10° S 21:17:44 31° ESE 21:23:09 10° NE
Cosmos 1825 4.3 21:15:19 10° NNW 21:18:36 27° W 21:21:50 10° SSW
Cosmos 2221 Rocket 4.1 21:14:39 10° SSE 21:18:44 38° E 21:22:52 10° NNE
Cosmos 1782 4.2 21:18:25 17° ESE 21:19:57 21° E 21:22:58 10° NE
Meteor 1-26 Rocket 4.3 21:14:40 10° S 21:20:20 69° E 21:26:08 10° NNE
Cosmos 2322 Rocket 4.2 21:19:08 10° WSW 21:24:06 31° NW 21:29:06 10° N
USA 229 DEB 3.7 21:18:22 10° SSW 21:25:12 84° ESE 21:32:11 10° NE
USA 229 3.7 21:18:29 10° SSW 21:25:19 84° ESE 21:32:17 10° NE
Cosmos 2237 4.2 21:24:10 10° SSW 21:29:52 74° ESE 21:35:36 10° NNE
Cosmos 2360 Rocket 2.6 21:24:27 10° SSW 21:30:05 67° WNW 21:35:45 10° NNE
Terra 4.1 21:33:45 10° ENE 21:34:15 10° ENE 21:34:46 10° NE
Cosmos 1908 Rocket 3.7 21:30:05 10° NNW 21:34:26 75° W 21:38:46 10° S
ATLAS 5 CENTAUR R/B 3.3 21:29:27 10° NW 21:35:13 46° WSW 21:41:25 10° S
NOSS 3-1 (A) 4.0 21:30:37 10° S 21:35:34 31° ESE 21:40:59 10° NE
BREEZE-M DEB (TANK) 4.3 21:32:50 10° WSW 21:37:07 88° SSE 21:51:10 10° ENE
Resurs 01 Rocket 4.0 21:34:01 10° SW 21:37:28 22° W 21:40:58 10° NW
COSMOS 2428 2.6 21:33:59 10° SSW 21:39:36 68° ESE 21:45:17 10° NNE
Helios 1A 4.1 21:36:19 10° S 21:40:22 44° W 21:44:27 10° NNW
Cosmos 1939 Rocket 3.2 21:36:47 11° S 21:40:40 64° W 21:44:36 10° NNW
CZ-4B DEB 3.7 21:38:31 12° S 21:41:10 43° W 21:44:05 10° NNW
ARGOS 3.8 21:41:15 22° ESE 21:44:06 38° ENE 21:49:03 10° N
NOAA 11 4.5 21:41:22 21° SE 21:44:49 52° ENE 21:50:08 10° N
USA 267 3.9 21:39:49 10° NE 21:46:13 58° NNW 21:52:35 10° WSW
Cosmos 1777 Rocket 4.0 21:40:56 10° NNW 21:46:15 85° ENE 21:49:46 21° SSE
Abrixas rocket 3.4 21:43:11 10° NW 21:46:17 37° NNE 21:47:59 21° ENE
Cosmos 1844 4.0 21:41:08 10° NNW 21:46:42 54° ENE 21:49:48 25° SE
YAOGAN 6 2.5 21:46:02 23° SSE 21:48:10 88° WSW 21:51:46 10° NNW
Cosmos 1606 3.4 21:48:19 32° ESE 21:48:57 34° E 21:52:24 10° NNE
Cosmos 1782 Rocket 3.5 21:44:58 10° N 21:49:22 89° W 21:52:23 20° S
Okean 1-7 3.0 21:45:24 11° S 21:49:35 77° E 21:54:00 10° N
Sich 1 Rocket 4.4 21:46:08 10° NNW 21:50:29 51° W 21:54:52 10° SSW
Atlas Centaur 2 3.7 21:47:07 10° WSW 21:52:34 29° S 21:55:28 22° SSE
Cosmos 2084 3.9 21:49:44 10° NNW 21:53:24 41° NE 21:54:45 30° E
SPOT 1/Viking Rocket 4.3 21:55:00 26° ESE 21:57:04 36° ENE 22:01:49 10° N
Meteor 1-10 Rocket 4.4 21:54:01 19° SSE 21:58:11 55° E 22:03:53 10° NNE
Meteor 1-11 Rocket 4.5 21:57:11 10° N 22:02:14 35° ENE 22:04:01 28° ESE
Meteor 1-25 Rocket 4.2 21:58:45 10° NNW 22:04:20 80° W 22:08:08 21° S
MOS 1-B Rocket 4.0 22:02:56 29° SE 22:05:49 59° ENE 22:11:19 10° N
SL-08 RB Rocket 4.1 22:05:09 35° ESE 22:06:28 45° ENE 22:10:47 10° N
MetOp-A 4.1 22:03:40 27° SSE 22:06:39 81° ENE 22:12:01 10° NNW
USA 245 4.0 22:05:21 32° SE 22:07:37 60° ENE 22:12:05 10° N
Cosmos 1844 Rocket 2.7 22:02:58 10° NNW 22:08:34 80° WSW 22:11:29 29° SSE
Meteor 1-20 Rocket 4.2 22:03:14 10° NNW 22:08:52 83° W 22:12:29 24° S
Cosmos 2237 Rocket 2.6 22:08:37 32° SE 22:10:19 40° ESE 22:15:36 10° NE
Okean 2 Rocket 3.2 22:05:55 10° NNW 22:10:27 75° W 22:12:43 29° S
CZ-4C R/B 3.1 22:06:05 10° NNW 22:13:03 58° NE 22:17:07 29° ESE
Cosmos 2333 4.5 22:09:31 10° SSW 22:15:14 72° WNW 22:21:02 10° NNE
Cosmos 2278 Rocket 2.6 22:09:55 10° NNW 22:15:26 51° ENE 22:17:25 35° ESE
Cosmos 2333 Rocket 2.2 22:13:47 15° S 22:18:33 65° ESE 22:24:17 10° NNE
S3M 4.2 22:18:41 35° SE 22:20:43 48° E 22:26:39 10° NNE
USA 234 3.2 22:17:39 32° SE 22:20:56 81° SW 22:27:32 10° NW
Cosmos 1633 2.7 22:19:06 10° N 22:22:38 58° ENE 22:22:38 58° ENE
Cosmos 1536 4.2 22:23:04 10° NNE 22:26:02 26° ENE 22:26:02 26° ENE
Meteor 2-6 Rocket 4.3 22:24:06 23° S 22:27:59 87° E 22:33:58 10° N
Cosmos 2219 Rocket 2.2 22:26:07 10° SSW 22:31:43 80° WNW 22:37:23 10° NNE
CARTOSAT-1 4.4 22:36:40 35° ENE 22:36:40 35° ENE 22:40:30 10° N
SPOT 5 3.0 22:37:06 44° SSW 22:38:28 66° WSW 22:43:00 10° NNW
SeaSat 1 2.5 22:38:34 54° ESE 22:39:31 68° ENE 22:44:26 10° NNW
ERS-1 Rocket 4.4 22:41:58 18° SSW 22:44:57 31° W 22:49:25 10° NW
Gbstr 26 Del rocket 4.4 22:37:36 10° SW 22:45:17 73° SE 22:53:25 10° ENE
Cosmos 2151 Rocket 3.8 22:40:53 10° NNW 22:45:18 65° W 22:46:05 54° SW
H-2A R/B 1.8 22:47:19 64° SSE 22:48:07 87° ENE 22:53:04 10° NNW
NOSS 0 Rocket 3.9 22:44:08 15° SSW 22:49:20 85° WNW 22:55:32 10° NNE
Cosmos 2298 Rocket 4.2 22:44:42 10° NNW 22:49:58 57° ENE 22:50:34 54° E
Cosmos 1745 Rocket 3.9 22:45:56 10° N 22:52:18 77° E 22:53:57 52° SSE
Cosmos 1674 Rocket 3.4 22:52:47 83° NNE 22:52:47 83° NNE 22:56:59 10° N
Okean 1 Rocket 3.4 22:50:01 10° N 22:54:01 55° NE 22:54:01 55° NE
Landsat 7 3.6 22:55:49 78° SE 22:56:04 83° ENE 23:00:51 10° NNW
Cosmos 1602 4.1 22:52:46 10° NNW 22:56:12 60° WNW 22:56:12 60° WNW
Cosmos 1937 Rocket 3.7 22:51:29 10° NNW 22:56:38 55° ENE 22:56:57 54° E
ASTEX 1 3.2 23:00:41 78° SSE 23:01:02 87° E 23:06:02 10° N
Cosmos 990 Rocket 4.3 22:56:59 10° N 23:02:00 50° ENE 23:02:06 50° ENE
H-2A R/B 2.2 23:04:32 70° NNE 23:04:32 70° NNE 23:08:30 10° N
Iridium 4 Rocket 3.3 23:00:41 10° N 23:04:12 62° NNE 23:04:12 62° NNE
CRYOSAT 2 4.3 23:05:31 73° ENE 23:05:31 73° ENE 23:10:16 10° N
Cosmos 1346 Rocket 3.6 23:07:05 46° WNW 23:07:07 46° WNW 23:10:59 10° N
Cosmos 2369 Rocket 4.4 23:05:33 10° NNE 23:08:08 13° NE 23:10:16 11° ENE
Cosmos 2285 Rocket 4.1 23:08:10 53° ESE 23:08:12 53° ESE 23:14:23 10° NNE
NOSS 3-1 (C) 4.3 23:02:37 10° WSW 23:08:15 48° NW 23:14:37 10° NNE
DMSP B5D2-2 3.9 23:03:48 10° NNE 23:09:07 85° ESE 23:09:30 77° S
Cosmos 858 Rocket 4.3 23:03:59 10° NNW 23:09:14 85° ENE 23:09:22 83° ESE
Terra 1.8 23:11:24 79° NNE 23:11:24 79° NNE 23:15:58 10° NNW
Cosmos 2297 3.7 23:08:27 10° NNW 23:14:09 68° ENE 23:14:31 66° E
Meteor 1-27 Rocket 4.2 23:15:33 36° SW 23:17:35 54° WNW 23:23:04 10° N
Cosmos 1975 Rocket 4.3 23:20:00 33° NE 23:20:00 33° NE 23:22:45 10° NNE
Cosmos 1763 Rocket 4.0 23:21:13 47° ENE 23:21:13 47° ENE 23:25:14 10° NNE
Cosmos 2150 Rocket 4.0 23:17:54 10° NNW 23:23:24 85° WSW 23:23:27 84° SW
Cosmos 1898 Rocket 3.7 23:19:43 10° NNW 23:24:51 61° WSW 23:24:51 61° WSW
Cosmos 1300 Rocket 4.4 23:20:52 10° NNW 23:24:42 44° WNW 23:24:42 44° WNW
NOSS 3-1 (A) 4.3 23:20:27 10° WSW 23:26:07 49° NW 23:32:30 10° NNE
ATLAS 2AS CENTAUR R/B 3.1 23:26:52 53° ESE 23:26:56 53° ESE 23:34:43 10° NE
SL-16 R/B 2.2 23:35:10 77° NE 23:35:10 77° NE 23:40:28 10° NNE
Spot 4 4.2 23:36:12 60° N 23:36:12 60° N 23:40:10 10° N
Cosmos 371 Rocket 4.1 23:44:30 47° NNE 23:44:30 47° NNE 23:47:59 10° NNE
Cosmos 2315 Rocket 3.8 23:46:48 85° ESE 23:46:51 86° E 23:53:07 10° N
Cosmos 1814 Rocket 4.3 23:47:03 60° WNW 23:47:03 60° WNW 23:52:00 10° NNE
ATLAS CENTAUR R/B 3.0 23:48:56 31° N 23:48:56 31° N 23:51:21 10° NNE
ATLAS 3B R/B 3.0 23:42:47 10° NNW 23:49:28 52° NE 23:50:28 48° ENE
CZ-2C R/B 4.3 23:45:54 10° NE 23:48:44 22° ENE 23:48:44 22° ENE
CZ-4 R/B 4.4 23:47:12 10° N 23:51:27 57° NW 23:51:27 57° NW
Cosmos 2237 Rocket 3.8 23:50:19 14° WSW 23:54:26 32° NW 23:59:31 10° N
